Regional Weather Roundup
Issued by NWS

Home | Current Version | Previous Version | Text Only | Print | Product List | Glossary Off
Versions: 1 2 3 4 5 6 7 8 9 10 11 12 13 14 15 16 17 18 19 20 21 22 23 24 25 26 27 28 29 30 31 32 33 34 35 36 37 38 39 40 41 42 43 44 45 46 47 48 49 50

000
ASUS45 KABQ 230401
RWRNM
WEATHER ROUNDUP FOR NEW MEXICO
NATIONAL WEATHER SERVICE ALBUQUERQUE NM
1000 PM MDT FRI AUG 22 2014

NOTE: "FAIR" MEANS FEW OR NO CLOUDS BELOW 12,000 FEET AGL WITH NO
       SIGNIFICANT WEATHER OR OBSTRUCTIONS TO VISION.

      THIS PRODUCT IS RELEASED AS TWO VERSIONS.  ONE VERSION NEAR
      THE TOP OF THE HOUR CONTAINING PRELIMINARY DATA FROM ALBUQUERQUE
      AND OTHER STATIONS.  A FINAL VERSION WITH ADDITIONAL DATA IS
      ISSUED ABOUT 10 MINUTES AFTER THE HOUR.

NMZ501-503-504-510>518-230500-
NORTHWEST PLATEAU/NORTHCENTRAL MOUNTAINS

CITY           SKY/WX    TMP DP  RH WIND       PRES   REMARKS
FARMINGTON     MOCLDY    59  53  80 E10       30.14R
LOS ALAMOS     PTCLDY    57  53  85 SW6       30.24S
SANTA FE       PTCLDY    59  55  87 S3        30.20S
TAOS           MOCLDY    52  46  82 E7        30.26R
ANGEL FIRE     FAIR      52  45  76 CALM      30.31R

$$
NMZ402-403-502-505>509-230500-
WESTCENTRAL MOUNTAINS/SOUTHWEST MOUNTAINS

CITY           SKY/WX    TMP DP  RH WIND       PRES   REMARKS
GALLUP         CLOUDY    65  45  48 S8        30.19R
SILVER CITY    MOCLDY    66  57  72 SW7       30.20R

$$
NMZ407-409-411-412-230500-
SOUTHERN DESERTS

CITY           SKY/WX    TMP DP  RH WIND       PRES   REMARKS
LORDSBURG      MOCLDY    72  57  60 CALM      30.11R
DEMING         PTCLDY    68  61  78 W8        30.12R
LAS CRUCES     CLOUDY    73  62  68 SW9       30.13R
HOLLOMAN AFB   PTCLDY    68  63  83 CALM      30.10R
ALAMOGORDO     PTCLDY    64  63  94 CALM      30.12R
T OR C         PTCLDY    67  60  78 N6        30.14R

$$
NMZ519>523-230500-
CENTRAL VALLEYS/CENTRAL HIGHLANDS

CITY           SKY/WX    TMP DP  RH WIND       PRES   REMARKS
ALBUQUERQUE    PTCLDY    61  55  81 SW5       30.16S
DOUBLE EAGLE   MOCLDY    57  55  94 VRB5      30.19S
CLINES CORNERS PTCLDY    55  52  89 W5        30.22F
BELEN          FAIR      60  58  95 CALM      30.16F
SOCORRO        RAIN      63  60  89 CALM      30.17R

$$
NMZ524>526-539-540-230500-
SOUTHCENTRAL MOUNTAINS

CITY           SKY/WX    TMP DP  RH WIND       PRES   REMARKS
RUIDOSO        NOT AVBL

$$
NMZ527>531-230500-
NORTHEAST HIGHLANDS/NORTHEAST PLAINS

CITY           SKY/WX    TMP DP  RH WIND       PRES   REMARKS
LAS VEGAS      PTCLDY    57  46  66 S13       30.19R
RATON          CLEAR     59  53  80 CALM      30.13R
CLAYTON        MOCLDY    70  50  49 S7        30.06R

$$
NMZ532>537-230500-
EASTCENTRAL PLAINS

CITY           SKY/WX    TMP DP  RH WIND       PRES   REMARKS
TUCUMCARI      CLOUDY    78  56  46 S8        30.02R
CANNON AFB     NOT AVBL
CLOVIS AIRPORT   N/A     68  61  77 S18       30.14R

$$
NMZ028-029-538-230500-
SOUTHEAST PLAINS

CITY           SKY/WX    TMP DP  RH WIND       PRES   REMARKS
ROSWELL        MOCLDY    76  58  53 S7        30.04R
ARTESIA        MOCLDY    77  59  53 S9        30.06R
CARLSBAD       CLOUDY    74  63  68 S6        30.04S
HOBBS          CLOUDY    72  64  78 SW14      30.09S


$$



USA.gov is the U.S. government's official web portal to all federal, state and local government web resources and services.